This demonstration page uses our WeatherBlox Daily Observations layout. Learn more.

Left ArrowRight Arrow

44.89941, -97.11507

Hourly Observations for June 2, 2018

Temp ( °F °C ) Dew Point ( °F °C ) Humidity (%) Winds ( mph kmh ) Pressure ( in mb ) Visibility ( mi km ) Precip ( " mm )
12:53 am 00:53 Cloudy with Light Rain 68 20 58 14.4 70 70 SSE 5 7 29.79 1009 10 16 0.02 0.51
1:35 am 01:35 Cloudy with Light Rain 72 22.2 54 12.2 53 53 SE 17 28 29.71 1006 10 16 0.01 0.25
1:53 am 01:53 Cloudy with Light Rain 74 23.3 51 10.6 45 45 ESE 21 33 29.67 1005 10 16 0.01 0.25
2:53 am 02:53 Mostly Clear 67 19.4 58 14.4 73 73 SE 3 6 29.78 1008 10 16 0.00 0.03
3:53 am 03:53 Clear 65 18.3 61 16.1 87 87 ENE 7 11 29.75 1008 10 16 0.00 0.00
4:53 am 04:53 Partly Cloudy 63 17.2 61 16.1 93 93 W 7 11 29.79 1009 10 16 0.00 0.00
5:02 am 05:02 Mostly Cloudy 64 17.8 62 16.7 93 93 WNW 6 9 29.80 1009 10 16 0.00 0.00
5:23 am 05:23 Cloudy 64 17.8 59 15 84 84 NW 15 24 29.80 1009 10 16 0.00 0.00
5:53 am 05:53 Mostly Cloudy 63 17.2 57 13.9 81 81 NW 13 20 29.82 1010 10 16 0.00 0.00
6:53 am 06:53 Cloudy 61 16.1 57 13.9 87 87 WNW 13 20 29.83 1010 10 16 0.00 0.00
7:24 am 07:24 Cloudy with Nearby Thunderstorms 60 15.6 56 13.3 86 86 WNW 14 22 29.85 1011 9 14 0.01 0.25
7:45 am 07:45 Cloudy with Rain 57 13.9 57 13.9 100 100 NW 13 20 29.88 1012 4 6 0.06 1.52
7:53 am 07:53 Cloudy with Thunderstorms 58 14.4 57 13.9 97 97 WNW 10 17 29.86 1011 3 5 0.09 2.29
8:12 am 08:12 Cloudy 59 15 57 13.9 93 93 W 12 19 29.91 1013 10 16 0.01 0.25
8:53 am 08:53 Mostly Sunny 59 15 55 12.8 87 87 W 12 19 29.88 1012 10 16 0.01 0.25
9:53 am 09:53 Partly Cloudy 62 16.7 54 12.2 75 75 W 20 31 29.90 1012 10 16 0.00 0.00
10:53 am 10:53 Mostly Cloudy 63 17.2 50 10 63 63 W 24 39 29.90 1012 10 16 0.00 0.00
11:53 am 11:53 Mostly Cloudy 66 18.9 52 11.1 61 61 W 23 37 29.88 1012 10 16 0.00 0.00
12:53 pm 12:53 Partly Cloudy 69 20.6 50 10 51 51 W 20 31 29.87 1012 10 16 0.00 0.00
1:53 pm 13:53 Mostly Cloudy 68 20 49 9.4 51 51 WNW 21 33 29.86 1011 10 16 0.00 0.00
2:53 pm 14:53 Cloudy 67 19.4 48 8.9 51 51 WNW 20 31 29.88 1012 10 16 0.00 0.00
3:53 pm 15:53 Mostly Cloudy 69 20.6 47 8.3 45 45 WNW 23 37 29.89 1012 10 16 0.00 0.00
4:53 pm 16:53 Cloudy 70 21.1 47 8.3 44 44 WNW 22 35 29.90 1012 10 16 0.00 0.00
5:53 pm 17:53 Cloudy 68 20 47 8.3 47 47 NW 20 31 29.91 1013 10 16 0.00 0.00
6:53 pm 18:53 Mostly Sunny 69 20.6 46 7.8 44 44 NW 21 33 29.92 1013 10 16 0.00 0.00
7:53 pm 19:53 Sunny 67 19.4 48 8.9 51 51 NNW 17 28 29.94 1014 10 16 0.00 0.00
8:53 pm 20:53 Sunny 64 17.8 48 8.9 56 56 WNW 10 17 29.95 1014 10 16 0.00 0.00
9:53 pm 21:53 Clear 62 16.7 47 8.3 58 58 W 6 9 29.96 1015 10 16 0.00 0.00
10:53 pm 22:53 Clear 54 12.2 48 8.9 80 80 SW 6 9 29.96 1015 10 16 0.00 0.00
11:53 pm 23:53 Clear 59 15 48 8.9 67 67 WNW 5 7 29.96 1015 10 16 0.00 0.00

Powered by AerisWeather